Location: Quedlinburg
(51.7921°N, 11.1414°E)
Time: 05:35:18
(UTC+02:00)

STRAND 1 - Pass Details

Date: 18 March 2026
Orbit: 761 x 775 km, 98.4° (Epoch: 16 April)

Event Time Altitude Azimuth Distance (km) Brightness Sun altitude
Rises 04:12:59 0° 139° (SE) 3,237 ? -20.3°
Reaches altitude 10° 04:15:24 10° 132° (SE) 2,312 ? -20.0°
Maximum altitude 04:20:06 39° 65° (ENE) 1,138 ? -19.3°
Drops below altitude 10° 04:24:50 10° 357° (N) 2,318 ? -18.6°
Sets 04:27:15 0° 350° (N) 3,247 ? -18.3°
